Location: Hilton Head Island
(32.2163°N, 80.7526°W)
Time: 19:01:30
(UTC-04:00)

Altair - Pass Details

Date: 19 February 2026
Orbit: 1502 x 1682 km, 47.2° (Epoch: 10 March)

Event Time Altitude Azimuth Distance (km) Brightness Sun altitude
Exits shadow 03:36:46 54° 71° (ENE) 1,789 7.9 -43.7°
Drops below altitude 10° 03:43:37 10° 55° (NE) 3,701 10.1 -42.3°
Sets 03:46:42 0° 54° (NE) 4,704 10.8 -41.7°
